Location: Poznań
(52.4062°N, 16.9234°E)
Time: 04:54:53
(UTC+01:00)

ISS - Visible Passes

Search period start: 24 November 2017 00:00
Search period end: 04 December 2017 00:00
Orbit: 402 x 407 km, 51.6° (Epoch: 24 November)

Date Brightness Start Highest point End Pass type
(mag) Time Alt. Az. Time Alt. Az. Time Alt. Az.
28 Nov -1.2 18:17:14 10° SSW 18:17:50 13° S 18:17:50 13° S visible
29 Nov -1.5 17:25:58 10° S 17:27:34 13° SE 17:27:45 13° SE visible
29 Nov -0.5 19:00:17 10° SW 19:00:25 11° SW 19:00:25 11° SW visible
30 Nov -2.2 18:08:11 10° SW 18:10:15 27° S 18:10:15 27° S visible
01 Dec -2.1 17:16:19 10° SSW 17:18:56 22° SSE 17:20:01 19° ESE visible
01 Dec -1.0 18:51:46 10° WSW 18:52:40 17° WSW 18:52:40 17° WSW visible
02 Dec -1.5 16:24:46 10° S 16:26:44 15° SE 16:28:42 10° ESE visible
02 Dec -3.2 17:59:29 10° WSW 18:02:23 47° S 18:02:23 47° S visible
03 Dec -2.8 17:07:18 10° SW 17:10:21 36° SSE 17:12:04 20° E visible
03 Dec -1.4 18:43:19 10° W 18:44:42 23° WSW 18:44:42 23° WSW visible
